This demonstration page uses our WeatherBlox Daily Observations layout. Learn more.

36.17497, -115.13722

Hourly Observations for May 29, 2018

Temp ( °F °C ) Dew Point ( °F °C ) Humidity (%) Winds ( mph kmh ) Pressure ( in mb ) Visibility ( mi km ) Precip ( " mm )
12:53 am 00:53 Clear 77 25 35 1.7 22 22 ESE 8 13 29.83 1010 10 16.09344 0 0
1:53 am 01:53 Clear 79 26.1 34 1.1 20 20 NNE 3 6 29.83 1010 10 16.09344 0 0
2:53 am 02:53 Clear 75 23.9 39 3.9 27 27 WSW 5 7 29.83 1010 10 16.09344 0 0
3:53 am 03:53 Clear 73 22.8 38 3.3 28 28 Calm 29.83 1010 10 16.09344 0 0
4:53 am 04:53 Clear 72 22.2 39 3.9 30 30 Calm 29.83 1010 10 16.09344 0 0
5:53 am 05:53 Sunny 73 22.8 37 2.8 27 27 NNW 6 9 29.83 1010 10 16.09344 0 0
6:53 am 06:53 Sunny 77 25 39 3.9 26 26 NNW 7 11 29.85 1011 10 16.09344 0 0
7:53 am 07:53 Sunny 79 26.1 39 3.9 24 24 WNW 8 13 29.85 1011 10 16.09344 0 0
8:53 am 08:53 Sunny 83 28.3 38 3.3 20 20 E 3 6 29.85 1011 10 16.09344 0 0
9:53 am 09:53 Sunny 84 28.9 37 2.8 19 19 ESE 6 9 29.85 1011 10 16.09344 0 0
10:53 am 10:53 Sunny 86 30 36 2.2 17 17 Calm 29.83 1010 10 16.09344 0 0
11:53 am 11:53 Sunny 89 31.7 35 1.7 15 15 N 6 9 29.8 1009 10 16.09344 0 0
12:53 pm 12:53 Sunny 92 33.3 35 1.7 13 13 E 5 7 29.77 1008 10 16.09344 0 0
1:53 pm 13:53 Sunny 92 33.3 34 1.1 13 13 S 7 11 29.74 1007 10 16.09344 0 0
2:53 pm 14:53 Sunny 93 33.9 36 2.2 13 13 S 8 13 29.71 1006 10 16.09344 0 0
3:53 pm 15:53 Sunny 94 34.4 36 2.2 13 13 N 3 6 29.68 1005 10 16.09344 0 0
4:53 pm 16:53 Sunny 95 35 35 1.7 12 12 S 8 13 29.68 1005 10 16.09344 0 0
5:53 pm 17:53 Sunny 94 34.4 34 1.1 12 12 SSW 7 11 29.65 1004 10 16.09344 0 0
6:53 pm 18:53 Sunny 94 34.4 34 1.1 12 12 Calm 29.62 1003 10 16.09344 0 0
7:53 pm 19:53 Clear 93 33.9 33 0.6 12 12 SSE 6 9 29.62 1003 10 16.09344 0 0
8:53 pm 20:53 Clear 90 32.2 35 1.7 14 14 SE 6 9 29.65 1004 10 16.09344 0 0
9:53 pm 21:53 Clear 89 31.7 36 2.2 15 15 SW 5 7 29.65 1004 10 16.09344 0 0
10:53 pm 22:53 Clear 87 30.6 37 2.8 17 17 Calm 29.65 1004 10 16.09344 0 0
11:53 pm 23:53 Clear 84 28.9 39 3.9 20 20 N 5 7 29.65 1004 10 16.09344 0 0

Powered by AerisWeather